Location: Treviso
(45.6669°N, 12.2430°E)
Time: 06:15:02
(UTC+01:00)

ISS - Pass Details

Date: 23 January 2021
Orbit: 418 x 421 km, 51.6° (Epoch: 23 January)

Event Time Altitude Azimuth Distance (km) Brightness Sun altitude
Rises 17:53:35 0° 239° (WSW) 2,360 2.0 -8.7°
Reaches altitude 10° 17:55:41 10° 239° (WSW) 1,500 0.6 -9.1°
Maximum altitude 17:59:03 86° 153° (SSE) 427 -3.8 -9.6°
Enters shadow 18:01:48 15° 62° (ENE) 1,250 -2.0 -10.1°
